| time (UTC) | temp C | wind direction | speed KPH | gust KPH | rain 1hr cm | rain 24hr cm | rain mn cm | humidity % | barometer mb |
| 20260507113109 | 15 | 343 | 4.8 | 17.7 | 0.00 | 0.61 | 0.00 | 52 | 1022.7 |
| 20260507112127 | 13 | 47 | 6.4 | 19.3 | 0.00 | 0.61 | 0.00 | 55 | 1022.7 |
| 20260507111144 | 14 | 31 | 4.8 | 14.5 | 0.00 | 0.61 | 0.00 | 55 | 1022.6 |
| 20260507105102 | 13 | 22 | 6.4 | 19.3 | 0.00 | 0.61 | 0.00 | 58 | 1022.5 |
| 20260507104038 | 15 | 331 | 6.4 | 17.7 | 0.00 | 0.61 | 0.00 | 58 | 1022.4 |
| 20260507103101 | 13 | 2 | 6.4 | 12.9 | 0.00 | 0.61 | 0.00 | 61 | 1022.5 |
| 20260507102034 | 13 | 321 | 6.4 | 14.5 | 0.00 | 0.61 | 0.00 | 64 | 1022.2 |
| 20260507101111 | 12 | 159 | 3.2 | 8.0 | 0.00 | 0.61 | 0.00 | 64 | 1022.2 |
| 20260507100038 | 12 | 329 | 3.2 | 17.7 | 0.00 | 0.61 | 0.00 | 68 | 1022.1 |
| 20260507095127 | 11 | 337 | 6.4 | 12.9 | 0.00 | 0.61 | 0.00 | 69 | 1022.1 |
| 20260507094127 | 12 | 348 | 3.2 | 12.9 | 0.00 | 0.61 | 0.00 | 69 | 1022.1 |
| 20260507093038 | 12 | 18 | 3.2 | 8.0 | 0.00 | 0.61 | 0.00 | 68 | 1022.0 |
| 20260507092103 | 11 | 322 | 4.8 | 12.9 | 0.00 | 0.61 | 0.00 | 72 | 1021.9 |
| 20260507091208 | 11 | 314 | 4.8 | 17.7 | 0.00 | 0.61 | 0.00 | 73 | 1022.0 |
| 20260507090239 | 10 | 333 | 3.2 | 9.7 | 0.00 | 0.61 | 0.00 | 76 | 1022.1 |
| 20260507083101 | 10 | 316 | 6.4 | 12.9 | 0.00 | 0.64 | 0.00 | 80 | 1021.9 |
| 20260507081037 | 10 | 337 | 3.2 | 14.5 | 0.00 | 0.64 | 0.00 | 83 | 1021.8 |
| 20260507080236 | 8 | 6 | 3.2 | 8.0 | 0.00 | 0.64 | 0.00 | 86 | 1021.8 |
| 20260507075125 | 8 | 21 | 4.8 | 12.9 | 0.00 | 0.69 | 0.00 | 86 | 1021.7 |
| 20260507073037 | 8 | 19 | 6.4 | 12.9 | 0.00 | 0.71 | 0.00 | 88 | 1021.6 |
| 20260507071101 | 8 | 64 | 1.6 | 8.0 | 0.00 | 0.74 | 0.00 | 91 | 1021.4 |
| 20260507065125 | 7 | 344 | 6.4 | 14.5 | 0.00 | 0.74 | 0.00 | 92 | 1021.2 |
| 20260507064039 | 7 | 322 | 4.8 | 14.5 | 0.00 | 0.74 | 0.00 | 93 | 1021.0 |
| 20260507063102 | 7 | 1 | 6.4 | 12.9 | 0.00 | 0.74 | 0.00 | 93 | 1021.0 |
| 20260507062036 | 7 | 312 | 4.8 | 9.7 | 0.00 | 0.74 | 0.00 | 94 | 1020.8 |
| 20260507061149 | 7 | 353 | 3.2 | 8.0 | 0.00 | 0.74 | 0.00 | 94 | 1020.8 |
| 20260507055214 | 7 | 351 | 4.8 | 9.7 | 0.00 | 0.74 | 0.00 | 95 | 1020.6 |
| 20260507053149 | 6 | 323 | 3.2 | 8.0 | 0.00 | 0.74 | 0.00 | 96 | 1020.3 |
| 20260507052038 | 6 | 321 | 1.6 | 8.0 | 0.00 | 0.74 | 0.00 | 96 | 1020.3 |
| 20260507051101 | 6 | 34 | 3.2 | 8.0 | 0.00 | 0.74 | 0.00 | 97 | 1020.3 |
| 20260507044037 | 6 | 306 | 0.0 | 3.2 | 0.00 | 0.74 | 0.00 | 98 | 1020.0 |
| 20260507043125 | 6 | 314 | 1.6 | 4.8 | 0.00 | 0.74 | 0.00 | 98 | 1019.9 |
| 20260507035212 | 6 | 303 | 1.6 | 4.8 | 0.00 | 0.74 | 0.00 | 98 | 1019.4 |
| 20260507034213 | 6 | 0.0 | 0.0 | 0.00 | 0.74 | 0.00 | 98 | 1019.3 | |
| 20260507032212 | 6 | 294 | 0.0 | 4.8 | 0.00 | 0.74 | 0.00 | 98 | 1019.3 |
| 20260507031149 | 6 | 0.0 | 0.0 | 0.00 | 0.74 | 0.00 | 98 | 1019.3 | |
| 20260507030037 | 6 | 0.0 | 0.0 | 0.00 | 0.74 | 0.00 | 98 | 1019.2 | |
| 20260507025100 | 6 | 282 | 1.6 | 8.0 | 0.00 | 0.74 | 0.00 | 98 | 1019.0 |
| 20260507023036 | 6 | 303 | 1.6 | 8.0 | 0.00 | 0.74 | 0.00 | 98 | 1018.9 |
| 20260507021037 | 6 | 315 | 1.6 | 8.0 | 0.00 | 0.74 | 0.00 | 98 | 1018.7 |
| 20260507020036 | 6 | 323 | 1.6 | 4.8 | 0.00 | 0.74 | 0.00 | 98 | 1018.6 |
| 20260507014126 | 6 | 356 | 3.2 | 9.7 | 0.00 | 0.74 | 0.00 | 98 | 1018.5 |
| 20260507013036 | 6 | 306 | 3.2 | 8.0 | 0.00 | 0.74 | 0.00 | 98 | 1018.5 |
| 20260507012023 | 6 | 338 | 3.2 | 9.7 | 0.00 | 0.74 | 0.00 | 98 | 1018.5 |
| 20260507005036 | 7 | 281 | 3.2 | 4.8 | 0.00 | 0.74 | 0.00 | 98 | 1018.2 |
| 20260507004125 | 7 | 310 | 3.2 | 12.9 | 0.00 | 0.74 | 0.00 | 99 | 1018.2 |
| 20260507003100 | 7 | 351 | 1.6 | 8.0 | 0.00 | 0.74 | 0.00 | 99 | 1018.2 |
| 20260507002101 | 7 | 314 | 4.8 | 9.7 | 0.00 | 0.74 | 0.00 | 99 | 1018.3 |
| 20260507001037 | 7 | 305 | 3.2 | 9.7 | 0.00 | 0.74 | 0.00 | 99 | 1018.2 |
| 20260507000149 | 7 | 348 | 3.2 | 8.0 | 0.00 | 0.74 | 0.00 | 99 | 1018.0 |
| 20260506235100 | 7 | 303 | 1.6 | 4.8 | 0.00 | 0.74 | 0.00 | 98 | 1018.1 |
| 20260506234036 | 7 | 307 | 3.2 | 8.0 | 0.00 | 0.74 | 0.00 | 98 | 1018.2 |
| 20260506233036 | 7 | 307 | 4.8 | 14.5 | 0.00 | 0.74 | 0.00 | 98 | 1018.2 |
| 20260506231037 | 7 | 346 | 3.2 | 9.7 | 0.00 | 0.74 | 0.00 | 99 | 1018.1 |
| 20260506230037 | 7 | 337 | 4.8 | 8.0 | 0.00 | 0.74 | 0.00 | 99 | 1018.1 |
| 20260506225150 | 7 | 335 | 1.6 | 8.0 | 0.00 | 0.74 | 0.00 | 99 | 1018.2 |
| 20260506224036 | 7 | 337 | 3.2 | 12.9 | 0.03 | 0.74 | 0.00 | 99 | 1018.0 |
| 20260506223037 | 7 | 320 | 3.2 | 8.0 | 0.03 | 0.74 | 0.00 | 99 | 1017.8 |
| 20260506222124 | 8 | 15 | 3.2 | 8.0 | 0.03 | 0.74 | 0.00 | 99 | 1017.7 |
| 20260506221125 | 8 | 295 | 1.6 | 4.8 | 0.03 | 0.74 | 0.00 | 99 | 1017.6 |
| 20260506220036 | 8 | 17 | 3.2 | 9.7 | 0.03 | 0.74 | 0.00 | 99 | 1017.5 |
| 20260506215148 | 8 | 293 | 1.6 | 4.8 | 0.05 | 0.74 | 0.74 | 99 | 1017.5 |
| 20260506214213 | 8 | 339 | 1.6 | 8.0 | 0.03 | 0.71 | 0.71 | 99 | 1017.4 |
| 20260506212100 | 8 | 317 | 1.6 | 8.0 | 0.05 | 0.71 | 0.71 | 99 | 1017.3 |
| 20260506211125 | 8 | 312 | 1.6 | 4.8 | 0.05 | 0.71 | 0.71 | 99 | 1017.2 |
| 20260506210036 | 8 | 322 | 1.6 | 4.8 | 0.05 | 0.71 | 0.71 | 99 | 1017.3 |
| 20260506205101 | 8 | 299 | 1.6 | 3.2 | 0.05 | 0.69 | 0.69 | 99 | 1017.2 |
| 20260506203149 | 8 | 292 | 1.6 | 8.0 | 0.03 | 0.66 | 0.66 | 99 | 1017.1 |
| 20260506202213 | 8 | 0.0 | 0.0 | 0.03 | 0.66 | 0.66 | 99 | 1017.1 | |
| 20260506201101 | 8 | 333 | 3.2 | 8.0 | 0.05 | 0.66 | 0.66 | 99 | 1017.1 |
| 20260506200149 | 8 | 283 | 0.0 | 3.2 | 0.08 | 0.66 | 0.66 | 99 | 1016.8 |
| 20260506195213 | 8 | 296 | 0.0 | 4.8 | 0.05 | 0.64 | 0.64 | 99 | 1016.9 |
| 20260506194100 | 8 | 300 | 1.6 | 8.0 | 0.08 | 0.64 | 0.64 | 99 | 1016.8 |
| 20260506193037 | 8 | 310 | 1.6 | 4.8 | 0.10 | 0.64 | 0.64 | 99 | 1016.7 |
| 20260506192101 | 8 | 298 | 1.6 | 4.8 | 0.13 | 0.64 | 0.64 | 99 | 1016.7 |
| 20260506190214 | 8 | 315 | 3.2 | 9.7 | 0.08 | 0.58 | 0.58 | 99 | 1016.6 |
| 20260506185037 | 8 | 316 | 3.2 | 8.0 | 0.08 | 0.58 | 0.58 | 99 | 1016.5 |
| 20260506184237 | 8 | 350 | 1.6 | 8.0 | 0.08 | 0.56 | 0.56 | 98 | 1016.4 |
| 20260506183149 | 8 | 38 | 3.2 | 9.7 | 0.05 | 0.53 | 0.53 | 98 | 1016.2 |
| 20260506182214 | 8 | 310 | 3.2 | 8.0 | 0.05 | 0.51 | 0.51 | 98 | 1016.1 |
| 20260506181037 | 8 | 337 | 3.2 | 8.0 | 0.08 | 0.51 | 0.51 | 98 | 1016.1 |
| 20260506180037 | 8 | 311 | 3.2 | 8.0 | 0.10 | 0.51 | 0.51 | 97 | 1015.9 |
| 20260506175037 | 8 | 330 | 6.4 | 14.5 | 0.10 | 0.51 | 0.51 | 97 | 1015.9 |
| 20260506174037 | 8 | 326 | 0.0 | 4.8 | 0.08 | 0.48 | 0.48 | 97 | 1015.7 |
| 20260506173036 | 8 | 333 | 3.2 | 8.0 | 0.10 | 0.48 | 0.48 | 96 | 1015.7 |
| 20260506172101 | 8 | 297 | 1.6 | 8.0 | 0.08 | 0.46 | 0.46 | 95 | 1015.7 |
| 20260506171125 | 8 | 323 | 3.2 | 9.7 | 0.05 | 0.43 | 0.43 | 94 | 1015.6 |
| 20260506165128 | 9 | 314 | 3.2 | 8.0 | 0.03 | 0.41 | 0.41 | 92 | 1015.5 |
| 20260506164213 | 8 | 324 | 3.2 | 8.0 | 0.05 | 0.41 | 0.41 | 92 | 1015.4 |
| 20260506163037 | 9 | 303 | 3.2 | 8.0 | 0.03 | 0.38 | 0.38 | 91 | 1015.4 |
| 20260506162125 | 9 | 287 | 1.6 | 4.8 | 0.05 | 0.38 | 0.38 | 89 | 1015.4 |
| 20260506161125 | 9 | 321 | 3.2 | 4.8 | 0.05 | 0.38 | 0.38 | 88 | 1015.5 |
| 20260506160037 | 9 | 302 | 3.2 | 9.7 | 0.08 | 0.38 | 0.38 | 88 | 1015.5 |
| 20260506155125 | 10 | 325 | 4.8 | 8.0 | 0.10 | 0.38 | 0.38 | 89 | 1015.5 |
| 20260506154125 | 10 | 307 | 3.2 | 4.8 | 0.08 | 0.36 | 0.36 | 90 | 1015.5 |
| 20260506153037 | 10 | 338 | 3.2 | 8.0 | 0.08 | 0.36 | 0.36 | 89 | 1015.6 |
| 20260506152237 | 10 | 307 | 3.2 | 4.8 | 0.05 | 0.33 | 0.33 | 89 | 1015.5 |
| 20260506151125 | 10 | 333 | 3.2 | 8.0 | 0.08 | 0.33 | 0.33 | 87 | 1015.5 |
| 20260506150101 | 10 | 335 | 6.4 | 12.9 | 0.08 | 0.30 | 0.30 | 87 | 1015.5 |
| 20260506145120 | 10 | 349 | 4.8 | 9.7 | 0.08 | 0.28 | 0.28 | 86 | 1015.5 |
| 20260506142649 | 10 | 310 | 3.2 | 8.0 | 0.13 | 0.28 | 0.28 | 84 | 1015.5 |
| 20260506141758 | 10 | 320 | 4.8 | 9.7 | 0.10 | 0.25 | 0.25 | 82 | 1015.5 |
| 20260506135536 | 10 | 5 | 3.2 | 4.8 | 0.05 | 0.20 | 0.20 | 83 | 1015.5 |
| 20260506134536 | 10 | 328 | 4.8 | 9.7 | 0.03 | 0.18 | 0.18 | 82 | 1015.5 |
| 20260506133536 | 10 | 306 | 4.8 | 8.0 | 0.05 | 0.18 | 0.18 | 81 | 1015.6 |
| 20260506132737 | 10 | 318 | 4.8 | 9.7 | 0.03 | 0.15 | 0.15 | 79 | 1015.5 |
| 20260506130536 | 11 | 341 | 6.4 | 14.5 | 0.03 | 0.15 | 0.15 | 77 | 1015.5 |
| 20260506125624 | 11 | 341 | 3.2 | 8.0 | 0.03 | 0.15 | 0.15 | 76 | 1015.4 |
| 20260506124625 | 11 | 310 | 6.4 | 14.5 | 0.03 | 0.15 | 0.15 | 74 | 1015.5 |
| 20260506123625 | 11 | 70 | 4.8 | 14.5 | 0.00 | 0.13 | 0.13 | 73 | 1015.3 |
| 20260506122536 | 11 | 334 | 3.2 | 8.0 | 0.00 | 0.13 | 0.13 | 74 | 1015.2 |
| 20260506121713 | 11 | 337 | 6.4 | 19.3 | 0.00 | 0.13 | 0.13 | 73 | 1015.2 |
| 20260506114737 | 11 | 333 | 4.8 | 9.7 | 0.00 | 0.13 | 0.13 | 76 | 1015.0 |
| 20260506113624 | 11 | 40 | 6.4 | 12.9 | 0.00 | 0.13 | 0.13 | 74 | 1015.0 |